TimeEST,TemperatureF,Dew PointF,Humidity,Sea Level PressureIn,VisibilityMPH,Wind Direction,Wind SpeedMPH,Gust SpeedMPH,PrecipitationIn,Events,Conditions,WindDirDegrees,DateUTC
12:15 AM,30.2,28.4,93,29.65,4.0,North,12.7,-,N/A,,Overcast,360,2014-01-03 05:15:00
12:35 AM,30.2,28.4,93,29.66,4.0,NNW,12.7,16.1,N/A,,Overcast,330,2014-01-03 05:35:00
12:55 AM,30.2,30.2,100,29.67,5.0,NNW,18.4,23.0,N/A,,Overcast,330,2014-01-03 05:55:00
1:15 AM,30.2,28.4,93,29.68,6.0,NNW,17.3,-,N/A,,Overcast,340,2014-01-03 06:15:00
1:35 AM,28.4,28.4,100,29.71,8.0,NNW,12.7,20.7,N/A,,Overcast,340,2014-01-03 06:35:00
1:55 AM,28.4,28.4,100,29.73,10.0,NNW,13.8,18.4,N/A,,Overcast,340,2014-01-03 06:55:00
2:15 AM,28.4,28.4,100,29.74,10.0,NW,20.7,31.1,N/A,,Overcast,310,2014-01-03 07:15:00
2:35 AM,26.6,24.8,93,29.76,10.0,NW,25.3,34.5,N/A,,Overcast,310,2014-01-03 07:35:00
2:55 AM,24.8,23.0,93,29.78,10.0,NW,23.0,36.8,N/A,,Overcast,310,2014-01-03 07:55:00
3:15 AM,24.8,21.2,86,29.81,10.0,NW,21.9,34.5,N/A,,Overcast,320,2014-01-03 08:15:00
3:35 AM,23.0,19.4,86,29.83,10.0,NNW,13.8,26.5,N/A,,Overcast,330,2014-01-03 08:35:00
3:55 AM,21.2,17.6,86,29.83,10.0,NW,21.9,33.4,N/A,,Overcast,310,2014-01-03 08:55:00
4:15 AM,21.2,15.8,80,29.85,10.0,NW,23.0,31.1,N/A,,Mostly Cloudy,310,2014-01-03 09:15:00
4:35 AM,19.4,14.0,80,29.88,10.0,NW,29.9,39.1,N/A,,Partly Cloudy,320,2014-01-03 09:35:00
4:55 AM,19.4,12.2,74,29.92,10.0,WNW,26.5,38.0,N/A,,Mostly Cloudy,300,2014-01-03 09:55:00
5:15 AM,17.6,12.2,79,29.95,10.0,NW,25.3,38.0,N/A,,Mostly Cloudy,320,2014-01-03 10:15:00
5:35 AM,17.6,10.4,73,29.99,10.0,NW,23.0,32.2,N/A,,Mostly Cloudy,310,2014-01-03 10:35:00
5:55 AM,17.6,10.4,73,30.01,10.0,NW,17.3,24.2,N/A,,Mostly Cloudy,320,2014-01-03 10:55:00
6:15 AM,17.6,10.4,73,30.03,10.0,NNW,20.7,29.9,N/A,,Partly Cloudy,330,2014-01-03 11:15:00
6:35 AM,17.6,10.4,73,30.05,10.0,NW,18.4,28.8,N/A,,Clear,320,2014-01-03 11:35:00
6:45 AM,17.6,8.6,68,30.06,10.0,NNW,21.9,27.6,N/A,,Clear,330,2014-01-03 11:45:00
6:55 AM,17.6,8.6,68,30.06,10.0,NW,26.5,32.2,N/A,,Clear,310,2014-01-03 11:55:00
7:45 AM,15.8,8.6,73,30.11,10.0,NNW,23.0,39.1,N/A,,Clear,330,2014-01-03 12:45:00
8:45 AM,17.6,8.6,68,30.18,10.0,North,18.4,27.6,N/A,,Clear,350,2014-01-03 13:45:00
9:55 AM,19.4,8.6,63,30.25,10.0,NNW,18.4,27.6,N/A,,Clear,340,2014-01-03 14:55:00
10:45 AM,21.2,8.6,58,30.27,10.0,North,17.3,29.9,N/A,,Clear,350,2014-01-03 15:45:00
12:35 PM,24.8,6.8,46,30.29,10.0,NNW,21.9,27.6,N/A,,Clear,340,2014-01-03 17:35:00
12:45 PM,24.8,6.8,46,30.29,10.0,North,19.6,25.3,N/A,,Clear,350,2014-01-03 17:45:00
12:55 PM,24.8,6.8,46,30.29,10.0,NNW,17.3,25.3,N/A,,Clear,330,2014-01-03 17:55:00
1:15 PM,24.8,6.8,46,30.30,10.0,NNW,17.3,27.6,N/A,,Clear,340,2014-01-03 18:15:00
1:35 PM,24.8,6.8,46,30.31,10.0,North,17.3,27.6,N/A,,Clear,350,2014-01-03 18:35:00
1:45 PM,24.8,6.8,46,30.32,10.0,NNW,15.0,25.3,N/A,,Clear,340,2014-01-03 18:45:00
1:55 PM,24.8,6.8,46,30.32,10.0,NNW,17.3,23.0,N/A,,Clear,340,2014-01-03 18:55:00
2:15 PM,26.6,8.6,47,30.34,10.0,NNW,11.5,17.3,N/A,,Clear,330,2014-01-03 19:15:00
2:35 PM,26.6,6.8,43,30.34,10.0,NW,13.8,19.6,N/A,,Clear,320,2014-01-03 19:35:00
2:55 PM,24.8,6.8,46,30.34,10.0,NNW,12.7,19.6,N/A,,Clear,330,2014-01-03 19:55:00
3:15 PM,24.8,6.8,46,30.35,10.0,NW,16.1,20.7,N/A,,Clear,320,2014-01-03 20:15:00
3:35 PM,24.8,6.8,46,30.36,10.0,NW,11.5,18.4,N/A,,Clear,320,2014-01-03 20:35:00
3:55 PM,24.8,5.0,43,30.38,10.0,NNW,15.0,19.6,N/A,,Clear,330,2014-01-03 20:55:00
4:15 PM,24.8,6.8,46,30.39,10.0,NW,11.5,-,N/A,,Clear,320,2014-01-03 21:15:00
4:35 PM,23.0,6.8,50,30.39,10.0,NW,12.7,-,N/A,,Clear,320,2014-01-03 21:35:00
4:55 PM,21.2,6.8,54,30.41,10.0,NNW,4.6,-,N/A,,Clear,340,2014-01-03 21:55:00
5:15 PM,19.4,5.0,54,30.42,10.0,Calm,Calm,-,N/A,,Clear,0,2014-01-03 22:15:00
5:35 PM,19.4,5.0,54,30.42,10.0,North,4.6,-,N/A,,Clear,360,2014-01-03 22:35:00
5:55 PM,17.6,6.8,63,30.43,10.0,NNW,9.2,-,N/A,,Clear,340,2014-01-03 22:55:00
6:15 PM,17.6,5.0,58,30.44,10.0,NW,8.1,-,N/A,,Clear,320,2014-01-03 23:15:00
6:35 PM,17.6,5.0,58,30.44,10.0,NW,8.1,-,N/A,,Clear,310,2014-01-03 23:35:00
6:55 PM,17.6,6.8,63,30.45,10.0,North,3.5,-,N/A,,Clear,360,2014-01-03 23:55:00
7:15 PM,17.6,6.8,63,30.46,10.0,NNE,5.8,-,N/A,,Clear,30,2014-01-04 00:15:00
7:35 PM,17.6,6.8,63,30.46,10.0,North,3.5,-,N/A,,Clear,360,2014-01-04 00:35:00
7:55 PM,15.8,6.8,68,30.48,10.0,Calm,Calm,-,N/A,,Clear,0,2014-01-04 00:55:00
8:15 PM,15.8,6.8,68,30.49,10.0,West,3.5,-,N/A,,Clear,280,2014-01-04 01:15:00
8:35 PM,14.0,6.8,73,30.49,10.0,Calm,Calm,-,N/A,,Clear,0,2014-01-04 01:35:00
8:55 PM,12.2,6.8,79,30.49,10.0,Calm,Calm,-,N/A,,Clear,0,2014-01-04 01:55:00
9:15 PM,12.2,6.8,79,30.50,10.0,Calm,Calm,-,N/A,,Clear,0,2014-01-04 02:15:00
9:35 PM,10.4,6.8,85,30.50,10.0,Calm,Calm,-,N/A,,Clear,0,2014-01-04 02:35:00
9:55 PM,10.4,6.8,85,30.50,10.0,Calm,Calm,-,N/A,,Clear,0,2014-01-04 02:55:00
10:15 PM,10.4,6.8,85,30.50,10.0,Calm,Calm,-,N/A,,Clear,0,2014-01-04 03:15:00
10:35 PM,10.4,6.8,85,30.50,10.0,Calm,Calm,-,N/A,,Clear,0,2014-01-04 03:35:00
10:55 PM,10.4,6.8,85,30.50,10.0,Calm,Calm,-,N/A,,Clear,0,2014-01-04 03:55:00
11:15 PM,10.4,8.6,92,30.50,10.0,Calm,Calm,-,N/A,,Clear,0,2014-01-04 04:15:00
11:35 PM,8.6,6.8,92,30.50,10.0,Calm,Calm,-,N/A,,Clear,0,2014-01-04 04:35:00
11:55 PM,8.6,6.8,92,30.50,10.0,Calm,Calm,-,N/A,,Clear,0,2014-01-04 04:55:00